Wind_Speed
22 24 27 30 32 35 38 40 42 41 34 29 29 31 30 30 28 29 29 26 26 29 25 23 24 21 22 22 21 20 22 17 9 7 7 6 9 9 18 25 16 5 11 11 12 5 9 5 3 4 12 15 17 15
22 24 27 29 32 36 39 42 42 39 34 31 33 33 32 31 29 29 30 28 26 27 27 24 21 12 15 14 19 21 22 23 19 13 9 8 15 25 20 8 14 1 12 12 8 10 14 10 15 15 16 19 16 14
23 24 27 30 33 36 39 42 41 36 33 34 34 36 34 31 33 30 26 24 23 23 21 13 15 12 19 21 17 23 23 23 25 18 20 22 19 14 12 16 21 10 18 15 12 12 24 23 24 22 15 14 19 21
23 25 27 30 33 36 39 40 39 35 34 34 35 35 36 32 28 24 22 19 15 14 20 12 4 15 16 16 17 20 24 23 21 21 17 20 22 13 17 19 22 26 21 16 20 15 18 19 14 16 15 16 18 19
24 26 28 30 32 35 38 39 38 35 33 34 35 35 32 28 23 22 17 11 4 8 16 14 7 9 9 15 13 16 18 17 16 21 21 22 21 21 20 16 16 12 13 21 26 23 21 14 12 8 8 12 18 17
25 27 28 29 31 35 38 39 39 35 32 34 33 34 27 21 20 17 10 8 6 8 12 8 4 14 15 15 14 14 9 4 7 6 11 13 16 17 10 5 6 18 18 22 25 19 14 12 9 4 5 15 11 4
27 28 28 29 30 34 37 39 39 35 29 32 30 30 24 16 15 16 12 9 9 8 7 3 5 15 14 8 14 10 5 4 6 4 2 4 3 3 3 15 22 20 13 14 11 5 9 8 8 7 9 5 3 8
28 29 28 29 29 32 37 39 38 33 27 29 29 25 20 13 12 12 12 11 12 8 8 7 14 9 10 9 16 22 11 10 7 6 8 4 6 7 5 15 23 19 8 6 1 5 9 10 10 9 7 8 9 14
29 30 29 29 28 31 36 38 37 30 26 28 26 21 14 11 9 9 9 8 9 10 6 11 20 10 12 4 8 11 11 22 26 26 19 14 19 13 16 15 21 20 13 8 4 6 10 12 15 13 14 16 18 20
29 30 29 28 28 30 34 37 34 29 26 27 23 18 11 11 9 9 7 6 6 6 10 17 15 12 10 9 6 6 10 12 10 18 13 21 20 10 10 8 16 16 13 10 5 8 9 14 18 19 22 25 28 30
28 30 30 27 27 30 33 35 32 28 27 24 22 17 12 9 8 5 4 4 5 4 9 15 13 10 11 13 12 7 6 6 8 15 8 14 25 21 19 17 12 11 12 13 13 17 22 32 36 36 35 35 34 33
27 30 29 27 27 29 32 33 29 28 26 21 20 15 9 4 3 3 5 4 4 3 10 11 10 7 10 9 7 7 7 6 8 13 7 12 23 25 21 29 34 33 34 36 36 38 40 40 38 38 36 33 32 31
25 28 28 26 26 29 31 30 27 29 25 20 16 6 6 2 2 1 5 3 6 7 8 9 7 6 7 6 6 6 6 8 7 8 6 15 19 19 22 26 28 30 33 37 37 35 37 36 34 33 31 30 27 24
22 25 26 25 25 28 30 28 26 27 23 16 11 5 3 3 3 8 11 8 5 4 5 5 8 4 6 5 5 6 7 6 5 6 8 16 21 23 20 14 12 18 23 24 25 24 23 22 24 23 22 24 25 26
21 23 23 22 23 25 28 26 25 24 19 12 8 6 9 18 16 10 9 5 2 2 3 4 4 4 4 4 5 6 4 6 5 9 16 19 22 25 28 29 30 31 32 34 34 34 34 34 33 32 30 27 23 21
20 20 21 21 21 23 25 23 23 20 18 10 13 17 15 10 9 8 8 5 2 2 2 2 2 1 3 4 4 5 5 6 17 19 20 22 25 26 26 25 26 27 27 27 26 25 23 21 20 18 17 15 14 12
19 19 20 20 20 21 24 21 19 15 16 17 22 22 17 10 6 6 5 5 4 4 2 1 1 1 4 4 6 5 19 27 24 22 22 23 20 19 19 18 19 19 19 18 18 17 16 15 15 14 13 11 9 8
17 16 18 19 18 19 21 18 19 12 21 24 25 25 17 8 5 3 3 3 5 5 4 3 1 3 3 6 21 37 31 27 24 23 22 20 18 17 17 17 16 16 15 14 13 13 12 12 11 9 8 6 5 6
13 14 17 18 16 17 18 12 16 10 19 23 26 28 22 11 2 1 6 2 4 6 4 4 2 7 24 38 35 32 28 25 24 23 18 18 16 15 14 13 13 12 11 11 11 10 8 8 7 6 6 6 8 10
13 15 17 17 15 14 11 10 11 9 16 21 26 27 28 19 7 5 5 6 7 8 4 5 27 37 34 34 31 28 26 25 23 18 14 14 13 12 11 11 10 9 8 8 8 8 8 8 8 9 10 11 12 12
14 15 16 15 12 10 7 8 7 6 8 14 17 22 22 19 16 8 3 6 10 7 39 34 32 31 31 30 29 27 24 21 18 15 12 10 9 9 8 8 7 7 8 8 8 9 10 10 11 11 11 11 11 10
17 16 15 12 8 6 4 8 5 2 4 6 9 14 19 20 24 25 29 36 40 32 32 30 30 29 28 27 26 24 21 18 15 11 9 7 7 6 6 7 7 8 9 12 14 16 16 15 14 12 10 8 8 7
16 12 7 5 2 3 3 7 5 3 2 2 3 4 9 13 16 20 23 26 28 27 27 26 25 24 23 23 20 17 15 14 11 9 7 6 5 5 6 7 8 11 13 15 16 16 16 15 13 10 8 6 5 4
8 3 1 1 1 3 4 5 5 4 3 1 1 4 7 12 13 17 20 21 22 22 22 22 22 20 18 17 14 12 11 10 8 7 6 5 4 5 6 8 10 12 13 14 15 16 15 13 12 11 9 7 6 5
3 2 1 1 2 4 4 4 4 2 1 1 1 3 7 6 6 12 14 15 16 16 16 16 16 15 14 12 11 10 9 7 6 5 4 3 4 6 8 10 12 14 15 16 16 18 19 17 14 11 9 7 6 5
3 1 1 2 4 4 4 3 2 1 1 1 2 2 4 3 5 4 11 12 13 12 12 11 11 11 10 9 8 7 7 6 5 4 3 4 6 8 10 12 13 15 15 16 16 16 18 18 15 12 9 7 6 6
3 3 3 4 5 5 4 3 2 2 1 1 2 4 4 2 3 4 11 12 12 11 11 10 9 8 7 6 5 4 4 4 3 3 4 6 7 9 10 11 13 14 15 15 15 15 15 17 16 12 10 7 7 7
5 5 5 5 5 5 5 4 3 3 3 2 3 4 3 3 3 5 11 12 12 11 11 10 9 7 4 3 3 2 2 1 1 2 4 5 6 7 9 10 12 13 15 16 17 16 14 13 14 13 10 9 7 7
7 6 5 5 5 5 4 3 3 3 4 5 4 4 4 5 6 7 11 13 13 12 11 9 7 5 3 3 3 2 3 3 3 4 5 6 7 9 11 13 14 15 17 20 20 18 15 13 12 12 12 10 9 8
7 7 7 7 6 7 6 5 5 4 4 5 6 6 6 5 7 9 10 11 11 11 10 9 8 7 6 6 5 4 4 5 6 6 7 8 9 11 13 16 17 17 18 19 20 20 18 16 13 11 10 10 9 9
11 12 11 10 9 9 8 7 6 6 5 5 6 5 4 5 7 7 7 7 7 8 8 9 9 9 8 7 7 7 7 7 8 8 9 10 12 13 15 17 17 17 18 19 19 18 17 16 14 13 12 11 10 9
10 9 8 9 10 11 11 9 8 6 6 6 8 7 8 7 6 5 4 4 5 6 7 7 7 7 7 8 8 8 9 9 8 10 12 13 13 14 16 18 19 20 20 20 19 18 16 15 14 13 12 11 10 9
9 8 7 7 7 7 6 5 5 5 5 7 10 11 10 8 5 4 2 2 3 4 5 6 6 7 7 7 8 8 8 9 11 12 13 13 15 16 16 17 18 19 19 18 17 17 16 15 14 13 12 11 10 10
Wind_Direction
338 341 341 343 345 346 344 342 339 337 336 332 329 326 327 326 324 318 311 308 300 293 297 302 301 314 309 304 301 305 308 313 310 280 266 297 294 320 310 312 310 238 177 201 214 222 266 275 287 299 273 312 332 332
339 338 339 342 345 345 345 341 339 338 339 337 334 335 334 329 324 320 311 305 299 290 296 296 297 309 301 304 295 289 280 285 275 270 267 270 281 302 312 291 331 351 346 328 231 232 247 264 284 288 260 299 326 338
335 336 338 342 345 346 343 341 340 341 339 338 337 336 333 332 324 315 306 304 300 304 301 298 296 287 314 307 297 290 298 299 286 281 271 275 278 286 282 290 310 308 315 319 299 240 251 271 277 267 259 293 307 325
332 335 337 341 345 345 343 341 342 342 339 338 337 338 335 332 331 326 320 314 301 296 290 318 350 298 308 309 299 287 286 283 285 282 263 264 272 277 275 292 297 300 310 301 291 300 283 266 297 279 267 282 293 313
333 335 337 339 343 344 343 343 343 342 339 338 340 340 339 342 341 340 339 330 311 280 291 313 315 321 336 353 330 303 295 282 250 264 262 259 274 282 302 300 279 282 304 301 295 303 284 265 280 280 247 245 289 296
334 337 337 337 340 343 342 343 343 341 337 341 341 342 345 351 355 358 360 7 352 319 322 339 13 6 351 337 350 322 324 275 225 244 260 269 280 262 272 291 314 303 292 290 293 283 253 252 250 172 246 262 284 264
336 337 336 334 338 341 341 343 342 340 338 341 340 343 348 357 6 14 19 11 0 354 353 32 354 351 2 6 14 12 11 90 110 118 185 107 123 237 5 355 342 332 295 279 277 259 228 213 183 158 240 258 207 158
337 336 336 334 335 339 341 342 342 340 338 341 341 342 345 351 0 10 20 25 15 13 23 11 340 354 24 84 47 41 71 102 101 108 84 58 58 54 4 351 342 353 318 324 287 189 200 179 168 165 154 114 119 119
333 336 336 332 334 339 340 342 342 341 339 341 341 342 341 340 332 336 340 359 7 31 22 352 3 353 11 42 67 66 56 57 55 54 60 53 49 26 344 343 341 2 22 22 354 180 175 164 132 128 123 118 126 124
332 335 334 332 334 339 339 342 341 341 340 340 342 344 341 338 334 327 318 338 346 354 10 2 5 8 21 49 49 74 45 47 34 32 41 45 49 26 6 357 340 2 19 41 86 137 139 133 116 113 120 123 120 121
330 334 332 332 336 338 339 343 341 342 341 342 340 341 331 326 326 329 331 337 344 352 355 2 6 23 47 47 56 51 52 56 40 24 36 39 45 47 37 24 22 30 51 74 93 105 113 111 117 120 121 121 123 127
329 331 331 334 335 337 341 343 343 343 344 345 339 338 332 322 326 332 333 342 337 340 354 7 18 38 51 53 57 48 56 49 45 19 45 35 55 69 71 77 74 81 88 95 103 110 113 115 113 116 117 113 109 105
326 329 332 334 335 339 341 344 345 346 346 348 341 338 334 316 305 355 343 329 327 320 348 9 27 56 59 60 60 60 63 64 41 31 38 50 70 81 83 90 102 100 98 96 99 100 102 107 110 104 103 103 104 108
325 326 331 335 336 337 341 344 348 350 351 342 333 322 327 323 319 314 321 327 328 336 357 9 21 55 56 67 80 73 77 65 60 51 63 79 84 90 106 120 120 107 115 116 119 120 118 117 114 116 117 113 108 103
321 323 333 335 333 338 342 344 349 355 352 351 350 342 320 306 298 291 314 318 322 329 6 6 26 53 62 95 83 104 87 89 85 108 96 89 86 88 95 100 102 104 102 102 99 100 99 95 92 90 87 88 91 91
316 321 335 336 335 339 344 345 348 352 358 4 349 335 329 310 277 282 304 302 274 266 338 7 17 43 70 90 96 89 100 106 132 115 103 97 91 84 82 82 83 83 84 85 89 91 93 96 97 99 100 98 97 93
314 325 338 337 334 339 346 346 348 2 12 358 360 356 348 330 287 254 265 249 241 217 235 266 359 100 103 91 99 105 125 131 123 114 107 97 93 95 94 91 89 91 91 92 91 90 93 94 93 87 84 83 79 68
316 326 335 336 335 338 345 349 358 4 12 8 7 5 351 332 314 254 219 224 209 209 226 230 180 148 112 111 126 128 130 127 122 117 107 104 101 97 95 94 91 88 85 82 82 80 75 70 65 59 54 47 37 23
318 325 335 336 332 338 347 347 359 13 12 13 9 7 11 357 353 170 185 179 194 197 194 174 141 144 131 127 126 130 129 127 123 110 107 109 105 101 98 94 89 84 79 71 63 54 47 41 36 26 16 360 347 341
322 327 332 332 329 337 343 345 356 18 22 23 13 16 16 22 42 76 150 165 151 155 167 136 129 127 126 126 126 127 127 124 115 109 108 105 105 101 93 85 76 67 57 46 35 22 10 356 345 337 332 329 329 328
317 319 322 326 325 328 341 350 1 16 32 38 28 33 35 29 30 40 179 183 193 191 126 124 125 125 125 126 128 127 122 118 118 118 115 107 99 90 81 71 56 41 25 9 356 345 338 333 329 326 322 319 315 313
311 308 312 315 313 323 338 360 1 7 35 27 40 55 65 69 78 87 105 118 114 113 116 119 121 122 124 127 124 122 121 117 115 114 113 108 99 86 68 51 38 24 13 7 4 358 351 347 342 336 328 315 305 298
311 307 305 300 289 319 334 351 359 359 332 355 11 63 85 87 87 95 94 102 105 110 114 117 119 121 121 118 116 118 122 125 126 125 121 108 89 71 55 39 25 18 14 9 2 354 348 345 344 343 338 327 315 304
347 49 90 141 327 319 326 347 348 354 358 350 89 158 135 120 114 113 111 112 114 116 118 117 116 113 115 118 120 124 125 122 120 116 104 91 80 57 33 22 15 8 2 358 358 359 359 353 347 343 339 333 321 305
353 20 116 62 345 326 325 334 345 330 10 134 121 147 165 155 152 139 134 131 128 125 123 123 123 126 125 125 127 127 123 121 118 110 102 83 50 32 25 18 10 3 359 357 355 356 357 355 351 346 337 327 314 305
318 284 315 337 336 328 325 322 324 327 292 222 199 186 196 210 174 174 169 158 150 144 140 138 137 134 131 131 130 129 128 128 123 110 81 51 35 27 20 13 5 360 356 353 351 348 349 350 346 341 334 322 310 303
282 280 298 315 320 320 317 299 286 247 281 261 191 188 181 191 215 217 194 185 174 166 160 155 148 144 143 139 139 142 142 131 106 58 33 27 21 16 8 1 357 354 354 352 347 345 344 344 342 335 328 319 309 305
294 297 296 304 308 316 311 296 271 231 219 196 190 202 220 217 227 221 202 198 190 182 177 169 159 152 156 160 167 175 181 181 18 358 352 355 355 351 346 341 341 344 349 355 354 347 338 334 339 338 330 319 310 305
305 291 282 283 300 321 312 290 258 241 232 229 237 240 254 272 254 218 199 195 194 192 191 189 187 192 212 213 209 216 237 260 285 308 318 324 329 331 331 332 339 346 346 346 347 346 340 333 330 334 333 321 312 308
303 293 294 293 297 305 305 285 268 260 252 246 242 251 278 268 218 195 194 198 202 206 211 218 223 231 247 233 230 238 262 280 288 299 307 313 321 327 330 332 336 339 340 340 339 337 336 332 325 323 326 329 314 303
299 284 277 278 278 278 289 292 285 267 250 250 239 235 205 168 169 176 182 188 197 210 222 231 238 240 236 232 243 251 268 288 291 295 301 310 318 323 326 327 330 334 336 337 336 333 329 326 323 317 314 310 314 309
305 297 292 280 270 268 269 274 279 273 252 238 215 199 182 170 168 168 181 203 220 229 234 236 235 228 235 247 256 257 271 283 289 296 302 307 311 319 324 327 330 332 331 330 330 329 326 323 319 316 312 306 304 306
313 303 290 284 281 272 259 251 267 269 240 210 195 190 187 188 186 190 202 234 231 228 232 237 241 245 249 253 258 262 268 285 297 300 302 307 314 318 322 324 325 325 326 325 325 323 322 323 322 316 309 307 302 299
Height
3063 3059 3055 3050 3044 3038 3032 3026 3020 3013 3005 3000 2995 2990 2984 2979 2975 2971 2966 2963 2959 2954 2952 2951 2950 2947 2945 2943 2940 2938 2937 2934 2934 2933 2932 2930 2927 2924 2921 2919 2913 2914 2916 2918 2921 2921 2915 2911 2912 2914 2912 2912 2912 2912
3059 3056 3051 3045 3040 3034 3028 3023 3015 3007 2999 2993 2987 2982 2977 2973 2967 2963 2958 2954 2951 2948 2946 2945 2944 2943 2941 2939 2935 2932 2932 2930 2930 2930 2930 2928 2926 2923 2919 2916 2913 2913 2915 2916 2915 2909 2907 2909 2909 2909 2908 2907 2908 2910
3056 3052 3047 3041 3035 3030 3025 3019 3011 3002 2995 2988 2982 2977 2971 2966 2960 2955 2948 2945 2943 2940 2939 2938 2939 2938 2936 2933 2930 2927 2924 2923 2921 2924 2923 2924 2923 2921 2917 2913 2912 2912 2910 2910 2910 2907 2905 2907 2907 2906 2906 2905 2906 2906
3051 3046 3042 3036 3031 3026 3021 3014 3006 2998 2991 2983 2977 2970 2964 2959 2952 2947 2942 2939 2937 2936 2935 2935 2935 2934 2931 2928 2925 2921 2918 2917 2915 2916 2918 2918 2918 2917 2914 2913 2912 2911 2910 2908 2905 2905 2904 2904 2904 2904 2905 2904 2903 2903
3047 3042 3037 3032 3027 3022 3017 3009 3001 2994 2986 2979 2972 2966 2959 2954 2948 2943 2938 2935 2934 2937 2933 2932 2932 2931 2928 2924 2920 2916 2912 2910 2911 2912 2912 2913 2914 2914 2911 2909 2908 2908 2907 2905 2900 2902 2900 2900 2902 2902 2902 2904 2903 2901
3042 3037 3032 3028 3023 3017 3011 3005 2997 2989 2983 2976 2969 2962 2956 2952 2947 2943 2939 2937 2935 2933 2932 2930 2931 2929 2926 2922 2917 2912 2909 2906 2907 2909 2911 2912 2911 2913 2911 2909 2908 2905 2903 2899 2896 2896 2897 2899 2901 2900 2902 2901 2900 2898
3036 3032 3027 3024 3019 3013 3007 3000 2993 2985 2978 2972 2966 2959 2955 2951 2948 2945 2941 2939 2936 2934 2932 2931 2930 2928 2924 2921 2917 2912 2909 2908 2908 2910 2911 2911 2909 2909 2908 2907 2904 2899 2896 2894 2892 2893 2896 2898 2898 2899 2900 2900 2900 2900
3032 3028 3022 3019 3015 3009 3003 2996 2989 2981 2975 2968 2962 2956 2953 2950 2948 2946 2942 2940 2937 2935 2933 2933 2931 2927 2924 2921 2919 2916 2912 2911 2910 2911 2912 2910 2910 2909 2909 2907 2902 2896 2893 2890 2890 2892 2893 2895 2896 2899 2900 2902 2904 2904
3028 3022 3017 3014 3010 3004 2999 2993 2985 2978 2972 2965 2959 2954 2952 2950 2948 2946 2943 2941 2939 2940 2936 2935 2930 2926 2924 2922 2921 2921 2919 2917 2918 2916 2914 2916 2913 2912 2911 2906 2902 2897 2893 2892 2892 2894 2894 2896 2897 2900 2902 2904 2906 2907
3025 3019 3013 3009 3005 3000 2994 2988 2980 2974 2969 2962 2956 2952 2949 2948 2946 2945 2943 2942 2940 2938 2937 2935 2932 2928 2927 2923 2922 2923 2922 2922 2924 2924 2922 2919 2918 2917 2912 2909 2905 2901 2898 2897 2898 2898 2899 2902 2903 2906 2907 2910 2911 2914
3020 3014 3010 3004 3000 2996 2990 2984 2976 2970 2966 2960 2954 2950 2948 2947 2946 2944 2943 2942 2941 2940 2938 2935 2932 2930 2929 2926 2925 2926 2927 2929 2929 2932 2927 2926 2925 2921 2917 2913 2909 2906 2904 2903 2903 2904 2907 2909 2912 2915 2916 2920 2922 2924
3015 3011 3006 2999 2995 2992 2986 2979 2973 2967 2961 2957 2952 2948 2946 2946 2945 2945 2943 2942 2941 2940 2939 2935 2933 2932 2930 2929 2929 2931 2931 2933 2935 2935 2934 2934 2934 2931 2928 2925 2921 2917 2915 2914 2916 2917 2918 2918 2921 2921 2923 2926 2931 2933
3012 3007 3002 2996 2992 2987 2983 2977 2970 2964 2959 2954 2950 2947 2946 2947 2946 2944 2943 2941 2941 2940 2938 2936 2934 2933 2932 2932 2932 2934 2936 2940 2941 2942 2943 2943 2941 2939 2938 2937 2936 2933 2931 2930 2931 2933 2934 2935 2935 2936 2938 2941 2944 2946
3007 3003 2998 2992 2988 2984 2980 2974 2968 2962 2957 2953 2949 2947 2947 2945 2945 2944 2942 2940 2940 2938 2937 2936 2934 2933 2933 2933 2934 2937 2941 2943 2946 2948 2949 2948 2946 2945 2944 2944 2944 2943 2942 2942 2942 2943 2943 2944 2945 2946 2948 2949 2952 2954
3003 3000 2994 2989 2985 2981 2977 2971 2966 2960 2957 2953 2950 2948 2946 2944 2941 2941 2940 2938 2938 2937 2937 2936 2935 2935 2934 2935 2936 2940 2942 2946 2951 2952 2952 2952 2951 2951 2950 2950 2950 2950 2950 2950 2950 2951 2951 2952 2953 2954 2956 2958 2961 2962
2999 2996 2991 2987 2983 2979 2974 2969 2965 2961 2956 2954 2952 2949 2943 2939 2937 2938 2937 2937 2937 2936 2936 2936 2935 2935 2935 2935 2938 2940 2943 2948 2953 2954 2955 2956 2956 2956 2956 2957 2957 2958 2958 2959 2959 2959 2960 2961 2962 2963 2964 2965 2966 2967
2994 2991 2988 2984 2981 2976 2972 2968 2964 2960 2958 2955 2950 2943 2939 2936 2935 2935 2935 2935 2935 2936 2936 2936 2936 2935 2937 2937 2939 2941 2945 2951 2955 2957 2959 2960 2962 2963 2964 2964 2964 2964 2965 2965 2966 2966 2967 2967 2968 2968 2969 2969 2970 2971
2989 2988 2984 2980 2978 2975 2971 2967 2963 2961 2957 2953 2948 2943 2937 2934 2933 2932 2932 2933 2934 2934 2935 2936 2936 2936 2936 2937 2941 2945 2951 2956 2959 2962 2963 2965 2967 2967 2968 2969 2969 2969 2969 2969 2970 2970 2970 2970 2970 2970 2971 2971 2971 2971
2984 2984 2982 2979 2976 2973 2969 2966 2964 2962 2959 2954 2948 2941 2936 2932 2931 2931 2931 2932 2933 2934 2935 2935 2935 2936 2938 2941 2946 2952 2956 2961 2963 2966 2968 2969 2970 2971 2972 2972 2972 2972 2972 2972 2972 2972 2972 2972 2972 2972 2971 2971 2970 2969
2981 2980 2978 2977 2974 2971 2969 2967 2965 2963 2960 2956 2951 2944 2937 2933 2931 2930 2931 2932 2933 2934 2935 2935 2937 2941 2944 2948 2953 2957 2962 2964 2967 2970 2972 2972 2973 2974 2974 2974 2974 2974 2974 2974 2973 2973 2972 2971 2970 2970 2969 2967 2966 2965
2978 2977 2976 2974 2972 2970 2969 2966 2965 2964 2962 2960 2956 2951 2946 2940 2934 2931 2931 2932 2934 2935 2937 2940 2944 2948 2951 2955 2959 2962 2965 2968 2970 2972 2974 2975 2976 2976 2976 2976 2976 2975 2975 2974 2974 2973 2972 2970 2969 2967 2965 2964 2963 2962
2975 2973 2972 2970 2969 2968 2967 2966 2965 2964 2964 2963 2961 2959 2956 2952 2947 2942 2940 2940 2940 2944 2946 2949 2952 2955 2958 2961 2963 2966 2969 2971 2973 2975 2976 2977 2977 2977 2977 2977 2976 2976 2975 2973 2971 2969 2967 2966 2964 2962 2961 2961 2960 2959
2969 2968 2967 2968 2968 2967 2968 2966 2965 2964 2963 2963 2963 2962 2961 2959 2957 2955 2953 2954 2953 2955 2956 2958 2960 2962 2964 2966 2968 2971 2972 2974 2975 2976 2977 2978 2978 2978 2977 2977 2976 2974 2973 2971 2970 2967 2965 2963 2961 2960 2958 2957 2956 2956
2966 2966 2966 2967 2967 2967 2966 2965 2964 2964 2963 2963 2963 2963 2963 2963 2963 2962 2961 2961 2962 2962 2963 2964 2965 2967 2969 2971 2972 2974 2975 2976 2977 2977 2977 2978 2978 2978 2977 2975 2974 2973 2972 2970 2968 2966 2964 2961 2959 2957 2955 2954 2954 2954
2969 2968 2968 2967 2966 2966 2965 2964 2964 2963 2963 2963 2964 2963 2964 2965 2965 2965 2965 2966 2966 2967 2968 2969 2970 2971 2972 2974 2975 2976 2977 2978 2978 2978 2978 2978 2978 2977 2976 2975 2973 2972 2970 2968 2966 2964 2962 2959 2957 2955 2954 2953 2952 2952
2968 2967 2968 2966 2965 2965 2964 2964 2963 2963 2963 2963 2963 2964 2964 2965 2966 2966 2967 2968 2969 2970 2971 2972 2973 2974 2975 2976 2977 2977 2978 2978 2979 2979 2979 2978 2977 2976 2975 2974 2973 2972 2970 2967 2965 2963 2960 2958 2956 2954 2953 2952 2951 2950
2967 2966 2966 2965 2965 2964 2963 2963 2963 2963 2963 2963 2963 2963 2964 2965 2965 2966 2967 2968 2969 2970 2972 2973 2975 2976 2977 2977 2978 2978 2978 2979 2979 2979 2978 2977 2976 2975 2975 2974 2973 2972 2969 2966 2964 2961 2958 2956 2954 2952 2951 2950 2949 2948
2966 2965 2965 2965 2964 2963 2962 2962 2962 2962 2962 2963 2963 2963 2964 2964 2965 2965 2965 2967 2969 2971 2972 2973 2974 2976 2977 2977 2978 2978 2978 2978 2978 2978 2978 2977 2976 2976 2975 2974 2972 2970 2967 2964 2962 2959 2957 2955 2953 2951 2949 2947 2947 2946
2964 2964 2964 2963 2962 2961 2961 2961 2961 2961 2961 2961 2962 2962 2963 2962 2963 2963 2964 2966 2968 2970 2972 2973 2974 2975 2976 2977 2977 2977 2978 2978 2978 2977 2977 2976 2975 2975 2973 2971 2969 2967 2964 2961 2959 2957 2955 2953 2951 2949 2947 2945 2944 2943
2963 2962 2962 2961 2961 2960 2960 2960 2959 2959 2959 2960 2960 2961 2960 2960 2960 2962 2964 2966 2967 2969 2971 2972 2973 2974 2974 2975 2975 2976 2976 2976 2976 2976 2975 2975 2974 2973 2971 2968 2966 2963 2961 2959 2957 2954 2952 2950 2949 2947 2945 2943 2942 2941
2959 2959 2959 2959 2958 2958 2958 2957 2957 2957 2957 2958 2958 2959 2959 2960 2961 2962 2963 2965 2966 2967 2969 2970 2971 2971 2972 2972 2973 2973 2974 2974 2973 2973 2972 2972 2971 2969 2967 2965 2963 2960 2958 2956 2954 2952 2949 2947 2946 2944 2943 2942 2940 2939
2956 2956 2955 2955 2955 2955 2955 2955 2955 2955 2955 2956 2956 2958 2959 2960 2962 2962 2963 2964 2965 2965 2966 2967 2968 2968 2969 2970 2970 2971 2971 2971 2971 2970 2970 2969 2967 2966 2964 2961 2958 2957 2955 2953 2951 2949 2947 2945 2943 2941 2940 2939 2937 2936
2954 2953 2952 2952 2952 2952 2952 2953 2953 2953 2953 2953 2955 2957 2958 2960 2961 2962 2962 2963 2964 2964 2965 2965 2966 2966 2966 2967 2967 2968 2968 2968 2968 2967 2966 2964 2963 2961 2959 2957 2955 2953 2951 2949 2948 2945 2943 2941 2939 2938 2936 2935 2934 2933